EST,Max TemperatureF,Mean TemperatureF,Min TemperatureF,Max Dew PointF,MeanDew PointF,Min DewpointF,Max Humidity, Mean Humidity, Min Humidity, Max Sea Level PressureIn, Mean Sea Level PressureIn, Min Sea Level PressureIn, Max VisibilityMiles, Mean VisibilityMiles, Min VisibilityMiles, Max Wind SpeedMPH, Mean Wind SpeedMPH, Max Gust SpeedMPH,PrecipitationIn, CloudCover, Events, WindDirDegrees
2013-2-1,24,18,12,9,4,0,73,58,42,30.15,29.87,29.56,10,8,1,21,10,30,0.01,7,Snow,342
2013-2-2,22,16,9,11,5,1,74,61,47,30.20,30.11,30.03,10,10,7,18,8,25,T,6,Snow,186
2013-2-3,26,17,7,12,9,3,91,71,50,30.04,29.92,29.75,10,10,8,8,3,10,0.00,2,,342
2013-2-4,25,17,8,13,4,-8,92,61,30,29.96,29.81,29.73,10,8,2,23,7,30,0.01,5,Snow,319
2013-2-5,22,11,0,4,-5,-9,75,53,31,30.06,29.98,29.90,10,10,10,7,2,9,0.00,3,,88
2013-2-6,28,19,9,21,12,-9,81,57,33,30.41,30.03,29.87,10,6,0,24,10,31,0.02,7,Fog-Snow,286
2013-2-7,12,7,2,-3,-6,-10,63,54,45,30.63,30.53,30.43,10,10,10,12,5,15,0.00,5,,344
2013-2-8,24,16,8,20,12,-3,92,78,63,30.43,30.13,29.96,10,2,0,14,4,18,0.52,8,Fog-Snow,339
2013-2-9,19,10,0,14,2,-6,84,65,46,30.40,30.17,29.96,10,6,1,26,13,36,0.01,5,Snow,354
2013-2-10,24,9,-7,3,-3,-12,87,61,34,30.51,30.41,30.26,10,10,10,9,2,12,0.00,0,,174
2013-2-11,39,28,17,35,22,2,92,62,31,30.21,29.82,29.60,10,8,2,25,12,36,0.08,7,Rain-Snow,187
2013-2-12,38,36,34,27,26,21,76,68,59,29.85,29.71,29.59,10,10,9,18,8,28,T,8,Snow,258
2013-2-13,38,35,31,25,22,20,72,62,52,29.85,29.80,29.76,10,10,10,15,3,22,0.00,8,,245
2013-2-14,36,33,29,26,21,17,85,66,47,29.94,29.88,29.77,10,10,8,8,3,,0.00,7,,246
2013-2-15,44,38,32,30,24,16,82,61,39,29.97,29.88,29.81,10,10,5,21,11,30,T,6,Snow,211
2013-2-16,33,26,18,18,10,3,74,56,38,30.04,30.00,29.95,10,10,10,16,9,23,0.00,3,,4
2013-2-17,18,15,11,4,2,-1,73,62,51,29.92,29.82,29.72,10,10,5,25,15,33,T,6,Snow,339
2013-2-18,27,18,8,0,-4,-10,63,43,22,30.17,30.09,29.90,10,10,10,20,10,26,0.00,1,,313
2013-2-19,44,29,13,31,18,1,89,59,29,30.15,29.80,29.60,10,7,0,21,7,30,0.17,6,Fog-Rain-Snow,180
2013-2-20,32,29,25,30,18,8,92,71,50,29.81,29.66,29.62,10,7,1,22,10,29,0.05,8,Snow,289
2013-2-21,21,16,11,16,8,-1,80,66,51,30.41,30.10,29.83,10,6,1,24,8,31,0.02,8,Snow,7
2013-2-22,34,23,11,22,18,9,88,72,56,30.46,30.36,30.24,10,10,9,8,2,9,0.00,5,,95
2013-2-23,38,35,32,32,28,21,89,73,56,30.21,30.02,29.89,10,6,0,15,7,22,0.07,8,Fog-Snow,158
2013-2-24,34,33,31,32,30,28,96,89,82,29.97,29.84,29.79,10,4,0,12,2,15,0.10,8,Fog-Rain-Snow,12
2013-2-25,36,34,31,31,30,28,92,84,75,30.25,30.14,29.97,8,3,0,5,0,7,T,8,Fog-Snow,357
2013-2-26,42,36,30,32,29,25,100,80,59,30.33,30.26,30.10,10,5,0,14,4,20,T,7,Fog,124
2013-2-27,38,36,34,34,30,24,96,78,59,30.09,29.82,29.65,10,9,2,20,7,26,0.25,7,Rain-Snow,95
2013-2-28,44,38,32,34,31,30,89,76,62,29.63,29.59,29.56,10,9,2,14,5,17,0.01,7,Snow,284